| time (UTC) | temp C | wind direction | speed KPH | gust KPH | rain 1hr cm | rain 24hr cm | rain mn cm | humidity % | barometer mb |
| 20260510140553 | 16 | 344 | 12.9 | 24.1 | 0.00 | 0.00 | 0.00 | 57 | 1012.5 |
| 20260510140035 | 16 | 53 | 8.0 | 22.5 | 0.00 | 0.00 | 0.00 | 57 | 1012.6 |
| 20260510135554 | 17 | 45 | 8.0 | 16.1 | 0.00 | 0.00 | 0.00 | 55 | 1012.7 |
| 20260510135046 | 17 | 342 | 4.8 | 17.7 | 0.00 | 0.00 | 0.00 | 57 | 1012.8 |
| 20260510134531 | 17 | 30 | 4.8 | 22.5 | 0.00 | 0.00 | 0.00 | 58 | 1012.9 |
| 20260510134024 | 17 | 22 | 6.4 | 17.7 | 0.00 | 0.00 | 0.00 | 55 | 1013.0 |
| 20260510133547 | 17 | 338 | 8.0 | 19.3 | 0.00 | 0.00 | 0.00 | 55 | 1013.0 |
| 20260510133056 | 17 | 37 | 11.3 | 19.3 | 0.00 | 0.00 | 0.00 | 56 | 1013.0 |
| 20260510132608 | 17 | 20 | 9.7 | 19.3 | 0.00 | 0.00 | 0.00 | 57 | 1013.1 |
| 20260510132036 | 17 | 351 | 9.7 | 20.9 | 0.00 | 0.00 | 0.00 | 58 | 1013.0 |
| 20260510131547 | 17 | 15 | 9.7 | 22.5 | 0.00 | 0.00 | 0.00 | 57 | 1013.0 |
| 20260510131029 | 17 | 5 | 8.0 | 24.1 | 0.00 | 0.00 | 0.00 | 57 | 1013.1 |
| 20260510130546 | 17 | 22 | 12.9 | 24.1 | 0.00 | 0.00 | 0.00 | 58 | 1013.2 |
| 20260510130030 | 17 | 17 | 8.0 | 27.4 | 0.00 | 0.00 | 0.00 | 58 | 1013.3 |
| 20260510125538 | 17 | 28 | 9.7 | 30.6 | 0.00 | 0.00 | 0.00 | 55 | 1013.2 |
| 20260510125036 | 17 | 32 | 8.0 | 30.6 | 0.00 | 0.00 | 0.00 | 56 | 1013.2 |
| 20260510124533 | 17 | 76 | 9.7 | 19.3 | 0.00 | 0.00 | 0.00 | 55 | 1013.4 |
| 20260510124041 | 17 | 304 | 9.7 | 24.1 | 0.00 | 0.00 | 0.00 | 54 | 1013.5 |
| 20260510123548 | 17 | 360 | 11.3 | 24.1 | 0.00 | 0.00 | 0.00 | 54 | 1013.5 |
| 20260510123030 | 18 | 24 | 8.0 | 20.9 | 0.00 | 0.00 | 0.00 | 53 | 1013.6 |
| 20260510122604 | 18 | 11 | 8.0 | 20.9 | 0.00 | 0.00 | 0.00 | 54 | 1013.6 |
| 20260510122054 | 18 | 56 | 9.7 | 20.9 | 0.00 | 0.00 | 0.00 | 54 | 1013.7 |
| 20260510121543 | 18 | 343 | 11.3 | 24.1 | 0.00 | 0.00 | 0.00 | 54 | 1013.7 |
| 20260510121046 | 17 | 49 | 9.7 | 24.1 | 0.00 | 0.00 | 0.00 | 55 | 1013.7 |
| 20260510120548 | 18 | 26 | 6.4 | 20.9 | 0.00 | 0.00 | 0.00 | 54 | 1013.8 |
| 20260510120036 | 17 | 101 | 11.3 | 20.9 | 0.00 | 0.00 | 0.00 | 54 | 1013.8 |
| 20260510115530 | 18 | 5 | 6.4 | 16.1 | 0.00 | 0.00 | 0.00 | 53 | 1013.8 |
| 20260510115037 | 18 | 323 | 6.4 | 16.1 | 0.00 | 0.00 | 0.00 | 54 | 1013.9 |
| 20260510114556 | 17 | 5 | 8.0 | 22.5 | 0.00 | 0.00 | 0.00 | 55 | 1014.0 |
| 20260510114038 | 17 | 19 | 9.7 | 22.5 | 0.00 | 0.00 | 0.00 | 55 | 1014.0 |
| 20260510113549 | 18 | 180 | 8.0 | 19.3 | 0.00 | 0.00 | 0.00 | 57 | 1014.0 |
| 20260510113043 | 18 | 355 | 8.0 | 19.3 | 0.00 | 0.00 | 0.00 | 56 | 1014.0 |
| 20260510112546 | 18 | 26 | 8.0 | 22.5 | 0.00 | 0.00 | 0.00 | 58 | 1014.1 |
| 20260510112036 | 17 | 14 | 11.3 | 22.5 | 0.00 | 0.00 | 0.00 | 57 | 1014.1 |
| 20260510111535 | 17 | 12 | 8.0 | 17.7 | 0.00 | 0.00 | 0.00 | 59 | 1014.1 |
| 20260510111055 | 17 | 24 | 6.4 | 20.9 | 0.00 | 0.00 | 0.00 | 62 | 1014.2 |
| 20260510110539 | 16 | 22 | 9.7 | 22.5 | 0.00 | 0.00 | 0.00 | 62 | 1014.3 |
| 20260510110026 | 17 | 13 | 11.3 | 22.5 | 0.00 | 0.00 | 0.00 | 61 | 1014.4 |
| 20260510105550 | 16 | 360 | 8.0 | 19.3 | 0.00 | 0.00 | 0.00 | 60 | 1014.3 |
| 20260510105042 | 17 | 282 | 8.0 | 19.3 | 0.00 | 0.00 | 0.00 | 60 | 1014.4 |
| 20260510104537 | 17 | 18 | 9.7 | 19.3 | 0.00 | 0.00 | 0.00 | 59 | 1014.4 |
| 20260510104056 | 17 | 24 | 8.0 | 19.3 | 0.00 | 0.00 | 0.00 | 59 | 1014.5 |
| 20260510103533 | 16 | 340 | 9.7 | 19.3 | 0.00 | 0.00 | 0.00 | 61 | 1014.5 |
| 20260510103037 | 16 | 336 | 9.7 | 17.7 | 0.00 | 0.00 | 0.00 | 61 | 1014.6 |
| 20260510102602 | 17 | 11 | 9.7 | 17.7 | 0.00 | 0.00 | 0.00 | 60 | 1014.5 |
| 20260510102046 | 17 | 28 | 8.0 | 17.7 | 0.00 | 0.00 | 0.00 | 61 | 1014.5 |
| 20260510101542 | 17 | 5 | 6.4 | 14.5 | 0.00 | 0.00 | 0.00 | 63 | 1014.5 |
| 20260510101104 | 17 | 287 | 6.4 | 16.1 | 0.00 | 0.00 | 0.00 | 61 | 1014.6 |
| 20260510100541 | 17 | 9 | 6.4 | 17.7 | 0.00 | 0.00 | 0.00 | 60 | 1014.6 |
| 20260510100035 | 16 | 25 | 6.4 | 17.7 | 0.00 | 0.00 | 0.00 | 65 | 1014.6 |
| 20260510095557 | 16 | 9 | 4.8 | 20.9 | 0.00 | 0.00 | 0.00 | 63 | 1014.7 |
| 20260510095105 | 16 | 68 | 8.0 | 20.9 | 0.00 | 0.00 | 0.00 | 63 | 1014.7 |
| 20260510094608 | 16 | 333 | 11.3 | 19.3 | 0.00 | 0.00 | 0.00 | 63 | 1014.8 |
| 20260510094055 | 16 | 288 | 4.8 | 17.7 | 0.00 | 0.00 | 0.00 | 63 | 1014.8 |
| 20260510093540 | 16 | 281 | 6.4 | 17.7 | 0.00 | 0.00 | 0.00 | 64 | 1014.9 |
| 20260510093030 | 17 | 349 | 4.8 | 14.5 | 0.00 | 0.00 | 0.00 | 62 | 1014.8 |
| 20260510092557 | 16 | 288 | 4.8 | 14.5 | 0.00 | 0.00 | 0.00 | 62 | 1014.8 |
| 20260510092042 | 16 | 33 | 8.0 | 14.5 | 0.00 | 0.00 | 0.00 | 63 | 1014.8 |
| 20260510091552 | 16 | 53 | 8.0 | 16.1 | 0.00 | 0.00 | 0.00 | 64 | 1014.9 |
| 20260510091040 | 16 | 44 | 6.4 | 17.7 | 0.00 | 0.00 | 0.00 | 64 | 1014.9 |
| 20260510090539 | 15 | 338 | 11.3 | 17.7 | 0.00 | 0.00 | 0.00 | 66 | 1014.9 |
| 20260510090035 | 16 | 321 | 8.0 | 17.7 | 0.00 | 0.00 | 0.00 | 64 | 1014.9 |
| 20260510085617 | 16 | 337 | 6.4 | 19.3 | 0.00 | 0.00 | 0.00 | 64 | 1014.9 |
| 20260510085041 | 16 | 332 | 8.0 | 14.5 | 0.00 | 0.00 | 0.00 | 62 | 1014.9 |
| 20260510084542 | 16 | 103 | 6.4 | 12.9 | 0.00 | 0.00 | 0.00 | 62 | 1015.0 |
| 20260510084046 | 15 | 318 | 6.4 | 22.5 | 0.00 | 0.00 | 0.00 | 63 | 1015.0 |
| 20260510083552 | 15 | 26 | 11.3 | 22.5 | 0.00 | 0.00 | 0.00 | 61 | 1015.1 |
| 20260510083034 | 15 | 19 | 9.7 | 19.3 | 0.00 | 0.00 | 0.00 | 62 | 1015.2 |
| 20260510082621 | 15 | 90 | 11.3 | 22.5 | 0.00 | 0.00 | 0.00 | 61 | 1015.3 |
| 20260510082040 | 15 | 25 | 9.7 | 22.5 | 0.00 | 0.00 | 0.00 | 60 | 1015.3 |
| 20260510081544 | 15 | 14 | 6.4 | 16.1 | 0.00 | 0.00 | 0.00 | 63 | 1015.3 |
| 20260510081030 | 14 | 40 | 9.7 | 17.7 | 0.00 | 0.00 | 0.00 | 61 | 1015.3 |
| 20260510080547 | 14 | 334 | 9.7 | 20.9 | 0.00 | 0.00 | 0.00 | 60 | 1015.4 |
| 20260510080041 | 13 | 17 | 9.7 | 22.5 | 0.00 | 0.00 | 0.00 | 65 | 1015.3 |
| 20260510075549 | 13 | 53 | 9.7 | 22.5 | 0.00 | 0.00 | 0.00 | 64 | 1015.3 |
| 20260510075045 | 13 | 39 | 8.0 | 16.1 | 0.00 | 0.00 | 0.00 | 69 | 1015.4 |
| 20260510074535 | 13 | 25 | 6.4 | 14.5 | 0.00 | 0.00 | 0.00 | 68 | 1015.4 |
| 20260510074043 | 13 | 48 | 8.0 | 14.5 | 0.00 | 0.00 | 0.00 | 70 | 1015.4 |
| 20260510073539 | 13 | 5 | 8.0 | 14.5 | 0.00 | 0.00 | 0.00 | 72 | 1015.4 |
| 20260510073030 | 12 | 22 | 6.4 | 14.5 | 0.00 | 0.00 | 0.00 | 73 | 1015.4 |
| 20260510072530 | 12 | 360 | 6.4 | 19.3 | 0.00 | 0.00 | 0.00 | 73 | 1015.4 |
| 20260510072043 | 12 | 351 | 8.0 | 19.3 | 0.00 | 0.00 | 0.00 | 76 | 1015.4 |
| 20260510071606 | 12 | 15 | 8.0 | 14.5 | 0.00 | 0.00 | 0.00 | 78 | 1015.5 |
| 20260510071034 | 12 | 9 | 4.8 | 11.3 | 0.00 | 0.00 | 0.00 | 80 | 1015.4 |
| 20260510070542 | 12 | 15 | 4.8 | 11.3 | 0.00 | 0.00 | 0.00 | 80 | 1015.4 |
| 20260510070057 | 12 | 30 | 4.8 | 12.9 | 0.00 | 0.00 | 0.00 | 81 | 1015.4 |
| 20260510065547 | 11 | 331 | 4.8 | 12.9 | 0.00 | 0.00 | 0.00 | 82 | 1015.4 |
| 20260510065123 | 11 | 5 | 4.8 | 11.3 | 0.00 | 0.00 | 0.00 | 83 | 1015.4 |
| 20260510064545 | 11 | 355 | 4.8 | 12.9 | 0.00 | 0.00 | 0.00 | 84 | 1015.4 |
| 20260510064037 | 11 | 5 | 6.4 | 12.9 | 0.00 | 0.00 | 0.00 | 85 | 1015.4 |
| 20260510063549 | 11 | 348 | 6.4 | 14.5 | 0.00 | 0.00 | 0.00 | 85 | 1015.4 |
| 20260510063033 | 11 | 348 | 6.4 | 14.5 | 0.00 | 0.00 | 0.00 | 86 | 1015.4 |
| 20260510062535 | 10 | 59 | 4.8 | 9.7 | 0.00 | 0.00 | 0.00 | 87 | 1015.4 |
| 20260510062035 | 10 | 343 | 3.2 | 8.0 | 0.00 | 0.00 | 0.00 | 87 | 1015.5 |
| 20260510061605 | 10 | 360 | 1.6 | 11.3 | 0.00 | 0.00 | 0.00 | 88 | 1015.5 |
| 20260510061024 | 10 | 296 | 4.8 | 11.3 | 0.00 | 0.00 | 0.00 | 88 | 1015.4 |
| 20260510060540 | 10 | 22 | 4.8 | 11.3 | 0.00 | 0.00 | 0.00 | 89 | 1015.5 |
| 20260510060056 | 10 | 335 | 4.8 | 8.0 | 0.00 | 0.00 | 0.00 | 89 | 1015.5 |
| 20260510055540 | 9 | 9 | 4.8 | 8.0 | 0.00 | 0.00 | 0.00 | 89 | 1015.5 |
| 20260510055034 | 9 | 44 | 3.2 | 8.0 | 0.00 | 0.00 | 0.00 | 90 | 1015.5 |
| 20260510054555 | 9 | 13 | 1.6 | 6.4 | 0.00 | 0.00 | 0.00 | 90 | 1015.5 |
| 20260510054054 | 8 | 350 | 1.6 | 6.4 | 0.00 | 0.00 | 0.00 | 90 | 1015.6 |
| 20260510053547 | 8 | 5 | 3.2 | 4.8 | 0.00 | 0.00 | 0.00 | 90 | 1015.6 |
| 20260510053045 | 8 | 25 | 1.6 | 6.4 | 0.00 | 0.00 | 0.00 | 90 | 1015.5 |
| 20260510052548 | 8 | 15 | 1.6 | 6.4 | 0.00 | 0.00 | 0.00 | 91 | 1015.6 |
| 20260510052041 | 8 | 14 | 3.2 | 6.4 | 0.00 | 0.00 | 0.00 | 90 | 1015.5 |
| 20260510051530 | 8 | 348 | 1.6 | 4.8 | 0.00 | 0.00 | 0.00 | 91 | 1015.5 |
| 20260510051032 | 8 | 5 | 1.6 | 6.4 | 0.00 | 0.00 | 0.00 | 91 | 1015.5 |
| 20260510050600 | 8 | 11 | 1.6 | 6.4 | 0.00 | 0.00 | 0.00 | 91 | 1015.5 |
| 20260510050034 | 8 | 5 | 1.6 | 4.8 | 0.00 | 0.00 | 0.00 | 91 | 1015.4 |
| 20260510045541 | 8 | 355 | 1.6 | 4.8 | 0.00 | 0.00 | 0.00 | 91 | 1015.4 |
| 20260510045035 | 8 | 355 | 0.0 | 4.8 | 0.00 | 0.00 | 0.00 | 91 | 1015.5 |
| 20260510044625 | 8 | 338 | 1.6 | 4.8 | 0.00 | 0.00 | 0.00 | 91 | 1015.4 |
| 20260510044058 | 8 | 350 | 0.0 | 3.2 | 0.00 | 0.00 | 0.00 | 91 | 1015.5 |
| 20260510043613 | 8 | 343 | 0.0 | 3.2 | 0.00 | 0.00 | 0.00 | 91 | 1015.5 |
| 20260510043029 | 8 | 355 | 1.6 | 6.4 | 0.00 | 0.00 | 0.00 | 91 | 1015.4 |
| 20260510042600 | 8 | 346 | 0.0 | 6.4 | 0.00 | 0.00 | 0.00 | 91 | 1015.4 |
| 20260510042041 | 8 | 5 | 3.2 | 6.4 | 0.00 | 0.00 | 0.00 | 91 | 1015.4 |
| 20260510041535 | 8 | 355 | 1.6 | 8.0 | 0.00 | 0.00 | 0.00 | 91 | 1015.3 |
| 20260510041040 | 8 | 340 | 3.2 | 11.3 | 0.00 | 0.00 | 0.00 | 91 | 1015.3 |
| 20260510040548 | 8 | 326 | 4.8 | 11.3 | 0.00 | 0.00 | 0.00 | 91 | 1015.3 |
| 20260510040036 | 8 | 11 | 3.2 | 8.0 | 0.00 | 0.00 | 0.00 | 91 | 1015.2 |
| 20260510035531 | 8 | 5 | 4.8 | 8.0 | 0.00 | 0.00 | 0.00 | 91 | 1015.2 |
| 20260510035037 | 8 | 360 | 1.6 | 9.7 | 0.00 | 0.00 | 0.00 | 91 | 1015.3 |
| 20260510034549 | 8 | 351 | 3.2 | 9.7 | 0.00 | 0.00 | 0.00 | 91 | 1015.3 |
| 20260510034030 | 8 | 332 | 1.6 | 8.0 | 0.00 | 0.00 | 0.00 | 91 | 1015.3 |
| 20260510033537 | 8 | 347 | 3.2 | 8.0 | 0.00 | 0.00 | 0.00 | 91 | 1015.4 |
| 20260510033039 | 8 | 13 | 1.6 | 6.4 | 0.00 | 0.00 | 0.00 | 91 | 1015.4 |
| 20260510032532 | 8 | 326 | 3.2 | 6.4 | 0.00 | 0.00 | 0.00 | 90 | 1015.4 |
| 20260510032029 | 8 | 323 | 1.6 | 4.8 | 0.00 | 0.00 | 0.00 | 90 | 1015.4 |
| 20260510031554 | 8 | 329 | 1.6 | 4.8 | 0.00 | 0.00 | 0.00 | 90 | 1015.5 |
| 20260510031036 | 8 | 342 | 3.2 | 4.8 | 0.00 | 0.00 | 0.00 | 90 | 1015.5 |
| 20260510030555 | 8 | 341 | 1.6 | 6.4 | 0.00 | 0.00 | 0.00 | 90 | 1015.5 |
| 20260510030038 | 8 | 351 | 3.2 | 8.0 | 0.00 | 0.00 | 0.00 | 90 | 1015.6 |
| 20260510025534 | 8 | 24 | 3.2 | 8.0 | 0.00 | 0.00 | 0.00 | 90 | 1015.6 |
| 20260510025037 | 8 | 342 | 3.2 | 6.4 | 0.00 | 0.00 | 0.00 | 90 | 1015.7 |
| 20260510024603 | 8 | 346 | 1.6 | 4.8 | 0.00 | 0.00 | 0.00 | 90 | 1015.8 |
| 20260510024035 | 8 | 342 | 1.6 | 4.8 | 0.00 | 0.00 | 0.00 | 90 | 1015.8 |
| 20260510023549 | 8 | 323 | 1.6 | 4.8 | 0.00 | 0.00 | 0.00 | 89 | 1015.8 |
| 20260510023030 | 8 | 334 | 1.6 | 4.8 | 0.00 | 0.00 | 0.00 | 89 | 1015.8 |
| 20260510022542 | 8 | 313 | 1.6 | 6.4 | 0.00 | 0.00 | 0.00 | 89 | 1015.7 |
| 20260510022036 | 8 | 304 | 1.6 | 6.4 | 0.00 | 0.00 | 0.00 | 89 | 1015.7 |
| 20260510021549 | 8 | 350 | 0.0 | 4.8 | 0.00 | 0.00 | 0.00 | 89 | 1015.7 |
| 20260510021052 | 9 | 355 | 1.6 | 6.4 | 0.00 | 0.00 | 0.00 | 89 | 1015.7 |
| 20260510020558 | 9 | 355 | 1.6 | 6.4 | 0.00 | 0.00 | 0.00 | 89 | 1015.7 |
| 20260510020028 | 9 | 332 | 1.6 | 8.0 | 0.00 | 0.00 | 0.00 | 88 | 1015.7 |
| 20260510015544 | 9 | 355 | 1.6 | 8.0 | 0.00 | 0.00 | 0.00 | 88 | 1015.7 |
| 20260510015104 | 9 | 360 | 3.2 | 6.4 | 0.00 | 0.00 | 0.00 | 88 | 1015.8 |
| 20260510014559 | 9 | 11 | 1.6 | 6.4 | 0.00 | 0.00 | 0.00 | 88 | 1015.8 |
| 20260510014051 | 9 | 14 | 3.2 | 6.4 | 0.00 | 0.00 | 0.00 | 88 | 1015.9 |
| 20260510013550 | 9 | 336 | 1.6 | 6.4 | 0.00 | 0.00 | 0.00 | 88 | 1015.9 |
| 20260510013059 | 9 | 347 | 1.6 | 4.8 | 0.00 | 0.00 | 0.00 | 88 | 1015.8 |
| 20260510012544 | 9 | 338 | 1.6 | 4.8 | 0.00 | 0.00 | 0.00 | 88 | 1015.8 |
| 20260510012037 | 9 | 351 | 1.6 | 6.4 | 0.00 | 0.00 | 0.00 | 88 | 1015.9 |
| 20260510011603 | 9 | 339 | 1.6 | 6.4 | 0.00 | 0.00 | 0.00 | 88 | 1015.8 |
| 20260510011042 | 9 | 329 | 1.6 | 4.8 | 0.00 | 0.00 | 0.00 | 88 | 1015.8 |
| 20260510010555 | 9 | 5 | 3.2 | 4.8 | 0.00 | 0.00 | 0.00 | 88 | 1015.8 |
| 20260510010053 | 9 | 17 | 1.6 | 4.8 | 0.00 | 0.00 | 0.00 | 88 | 1015.8 |
| 20260510005539 | 10 | 355 | 1.6 | 4.8 | 0.00 | 0.00 | 0.00 | 88 | 1015.9 |
| 20260510005103 | 10 | 350 | 1.6 | 4.8 | 0.00 | 0.00 | 0.00 | 88 | 1015.9 |
| 20260510004543 | 10 | 349 | 1.6 | 4.8 | 0.00 | 0.00 | 0.00 | 88 | 1016.0 |
| 20260510004025 | 10 | 21 | 1.6 | 4.8 | 0.00 | 0.00 | 0.00 | 87 | 1016.0 |
| 20260510003540 | 10 | 5 | 1.6 | 3.2 | 0.00 | 0.00 | 0.00 | 87 | 1016.0 |
| 20260510003059 | 10 | 349 | 1.6 | 6.4 | 0.00 | 0.00 | 0.00 | 87 | 1016.0 |
| 20260510002626 | 10 | 324 | 3.2 | 6.4 | 0.00 | 0.00 | 0.00 | 87 | 1016.1 |
| 20260510002040 | 10 | 5 | 1.6 | 4.8 | 0.00 | 0.00 | 0.00 | 87 | 1016.1 |
| 20260510001553 | 10 | 360 | 1.6 | 4.8 | 0.00 | 0.00 | 0.00 | 87 | 1016.1 |
| 20260510001042 | 10 | 13 | 1.6 | 4.8 | 0.00 | 0.00 | 0.00 | 86 | 1016.1 |
| 20260510000537 | 10 | 5 | 1.6 | 6.4 | 0.00 | 0.00 | 0.00 | 86 | 1016.1 |
| 20260510000035 | 10 | 342 | 1.6 | 6.4 | 0.00 | 0.00 | 0.00 | 86 | 1016.1 |
| 20260509235555 | 10 | 325 | 3.2 | 9.7 | 0.00 | 0.00 | 0.00 | 86 | 1016.2 |
| 20260509235035 | 10 | 360 | 1.6 | 9.7 | 0.00 | 0.00 | 0.00 | 87 | 1016.2 |
| 20260509234537 | 10 | 19 | 1.6 | 4.8 | 0.00 | 0.00 | 0.00 | 86 | 1016.2 |
| 20260509234031 | 10 | 18 | 1.6 | 4.8 | 0.00 | 0.00 | 0.00 | 86 | 1016.2 |
| 20260509233544 | 10 | 342 | 1.6 | 6.4 | 0.00 | 0.00 | 0.00 | 86 | 1016.2 |
| 20260509233055 | 10 | 346 | 3.2 | 6.4 | 0.00 | 0.00 | 0.00 | 86 | 1016.1 |
| 20260509232533 | 10 | 11 | 1.6 | 6.4 | 0.00 | 0.00 | 0.00 | 86 | 1016.1 |
| 20260509232109 | 10 | 336 | 0.0 | 6.4 | 0.00 | 0.00 | 0.00 | 86 | 1016.2 |
| 20260509231547 | 10 | 344 | 1.6 | 4.8 | 0.00 | 0.00 | 0.00 | 86 | 1016.2 |
| 20260509231026 | 10 | 360 | 1.6 | 4.8 | 0.00 | 0.00 | 0.00 | 86 | 1016.2 |
| 20260509230547 | 10 | 350 | 1.6 | 4.8 | 0.00 | 0.00 | 0.00 | 86 | 1016.3 |
| 20260509230032 | 10 | 350 | 1.6 | 4.8 | 0.00 | 0.00 | 0.00 | 85 | 1016.3 |
| 20260509225608 | 10 | 319 | 0.0 | 4.8 | 0.00 | 0.00 | 0.00 | 85 | 1016.4 |
| 20260509225037 | 10 | 355 | 0.0 | 4.8 | 0.00 | 0.00 | 0.00 | 84 | 1016.4 |
| 20260509224603 | 10 | 343 | 0.0 | 6.4 | 0.00 | 0.00 | 0.00 | 84 | 1016.3 |
| 20260509224040 | 10 | 345 | 1.6 | 4.8 | 0.00 | 0.00 | 0.00 | 84 | 1016.4 |
| 20260509223602 | 10 | 347 | 1.6 | 4.8 | 0.00 | 0.00 | 0.00 | 84 | 1016.4 |
| 20260509223047 | 10 | 360 | 1.6 | 4.8 | 0.00 | 0.00 | 0.00 | 83 | 1016.3 |
| 20260509222605 | 10 | 5 | 1.6 | 4.8 | 0.00 | 0.00 | 0.00 | 83 | 1016.3 |
| 20260509222041 | 11 | 18 | 1.6 | 4.8 | 0.00 | 0.00 | 0.00 | 83 | 1016.3 |
| 20260509221537 | 11 | 344 | 1.6 | 4.8 | 0.00 | 0.00 | 0.00 | 82 | 1016.4 |
| 20260509221047 | 11 | 360 | 1.6 | 4.8 | 0.00 | 0.00 | 0.00 | 82 | 1016.4 |
| 20260509220532 | 11 | 5 | 1.6 | 4.8 | 0.00 | 0.00 | 0.00 | 81 | 1016.4 |
| 20260509220042 | 11 | 360 | 1.6 | 4.8 | 0.00 | 0.00 | 0.00 | 81 | 1016.4 |
| 20260509215543 | 11 | 20 | 1.6 | 4.8 | 0.00 | 0.00 | 0.00 | 81 | 1016.3 |
| 20260509215059 | 11 | 17 | 1.6 | 4.8 | 0.00 | 0.00 | 0.00 | 81 | 1016.3 |
| 20260509214553 | 11 | 20 | 1.6 | 4.8 | 0.00 | 0.00 | 0.00 | 80 | 1016.3 |
| 20260509214036 | 11 | 355 | 1.6 | 3.2 | 0.00 | 0.00 | 0.00 | 80 | 1016.4 |
| 20260509213605 | 11 | 317 | 1.6 | 3.2 | 0.00 | 0.00 | 0.00 | 80 | 1016.4 |
| 20260509213029 | 11 | 350 | 1.6 | 6.4 | 0.00 | 0.00 | 0.00 | 80 | 1016.4 |
| 20260509212625 | 11 | 9 | 1.6 | 6.4 | 0.00 | 0.00 | 0.00 | 79 | 1016.5 |
| 20260509212052 | 12 | 346 | 3.2 | 6.4 | 0.00 | 0.00 | 0.00 | 78 | 1016.5 |
| 20260509211530 | 12 | 19 | 3.2 | 6.4 | 0.00 | 0.00 | 0.00 | 77 | 1016.5 |
| 20260509211029 | 12 | 9 | 1.6 | 8.0 | 0.00 | 0.00 | 0.00 | 77 | 1016.5 |
| 20260509210550 | 12 | 16 | 3.2 | 11.3 | 0.00 | 0.00 | 0.00 | 76 | 1016.4 |
| 20260509210046 | 12 | 9 | 3.2 | 14.5 | 0.00 | 0.00 | 0.00 | 76 | 1016.4 |
| 20260509205611 | 12 | 36 | 4.8 | 9.7 | 0.00 | 0.00 | 0.00 | 76 | 1016.3 |
| 20260509205039 | 12 | 19 | 1.6 | 6.4 | 0.00 | 0.00 | 0.00 | 76 | 1016.4 |
| 20260509204539 | 12 | 9 | 3.2 | 6.4 | 0.00 | 0.00 | 0.00 | 76 | 1016.3 |
| 20260509204045 | 12 | 28 | 1.6 | 6.4 | 0.00 | 0.00 | 0.00 | 75 | 1016.4 |
| 20260509203552 | 12 | 28 | 1.6 | 9.7 | 0.00 | 0.00 | 0.00 | 75 | 1016.3 |
| 20260509203026 | 12 | 22 | 3.2 | 9.7 | 0.00 | 0.00 | 0.00 | 74 | 1016.3 |
| 20260509202531 | 12 | 9 | 3.2 | 6.4 | 0.00 | 0.00 | 0.00 | 73 | 1016.3 |
| 20260509202101 | 13 | 5 | 3.2 | 6.4 | 0.00 | 0.00 | 0.00 | 72 | 1016.4 |
| 20260509201555 | 13 | 360 | 3.2 | 8.0 | 0.00 | 0.00 | 0.00 | 71 | 1016.4 |
| 20260509201037 | 13 | 355 | 3.2 | 8.0 | 0.00 | 0.00 | 0.00 | 71 | 1016.5 |
| 20260509200551 | 13 | 20 | 1.6 | 6.4 | 0.00 | 0.00 | 0.00 | 71 | 1016.5 |
| 20260509200036 | 13 | 14 | 1.6 | 6.4 | 0.00 | 0.00 | 0.00 | 71 | 1016.5 |
| 20260509195556 | 13 | 42 | 0.0 | 6.4 | 0.00 | 0.00 | 0.00 | 70 | 1016.4 |
| 20260509195026 | 13 | 30 | 1.6 | 6.4 | 0.00 | 0.00 | 0.00 | 69 | 1016.4 |
| 20260509194546 | 13 | 360 | 0.0 | 4.8 | 0.00 | 0.00 | 0.00 | 69 | 1016.4 |
| 20260509194035 | 13 | 32 | 1.6 | 6.4 | 0.00 | 0.00 | 0.00 | 67 | 1016.4 |
| 20260509193555 | 13 | 26 | 3.2 | 6.4 | 0.00 | 0.00 | 0.00 | 67 | 1016.3 |
| 20260509193059 | 13 | 64 | 3.2 | 6.4 | 0.00 | 0.00 | 0.00 | 67 | 1016.3 |
| 20260509192556 | 14 | 27 | 1.6 | 8.0 | 0.00 | 0.00 | 0.00 | 67 | 1016.2 |
| 20260509192041 | 14 | 53 | 1.6 | 8.0 | 0.00 | 0.00 | 0.00 | 66 | 1016.2 |
| 20260509191552 | 14 | 64 | 3.2 | 8.0 | 0.00 | 0.00 | 0.00 | 65 | 1016.1 |
| 20260509191056 | 15 | 35 | 3.2 | 6.4 | 0.00 | 0.00 | 0.00 | 65 | 1016.0 |
| 20260509190533 | 15 | 24 | 3.2 | 9.7 | 0.00 | 0.00 | 0.00 | 64 | 1016.0 |
| 20260509190057 | 15 | 50 | 1.6 | 6.4 | 0.00 | 0.00 | 0.00 | 64 | 1016.0 |
| 20260509185543 | 15 | 42 | 1.6 | 6.4 | 0.00 | 0.00 | 0.00 | 63 | 1016.0 |
| 20260509185030 | 15 | 13 | 3.2 | 11.3 | 0.00 | 0.00 | 0.00 | 62 | 1016.0 |
| 20260509184552 | 15 | 34 | 3.2 | 11.3 | 0.00 | 0.00 | 0.00 | 61 | 1015.8 |
| 20260509184037 | 15 | 360 | 4.8 | 9.7 | 0.00 | 0.00 | 0.00 | 61 | 1015.9 |
| 20260509183544 | 15 | 27 | 3.2 | 9.7 | 0.00 | 0.00 | 0.00 | 60 | 1015.9 |
| 20260509183028 | 16 | 15 | 4.8 | 9.7 | 0.00 | 0.00 | 0.00 | 60 | 1015.8 |
| 20260509182533 | 16 | 30 | 1.6 | 8.0 | 0.00 | 0.00 | 0.00 | 60 | 1015.9 |
| 20260509182032 | 16 | 44 | 1.6 | 12.9 | 0.00 | 0.00 | 0.00 | 60 | 1015.7 |
| 20260509181532 | 16 | 55 | 4.8 | 12.9 | 0.00 | 0.00 | 0.00 | 60 | 1015.8 |
| 20260509181105 | 16 | 11 | 4.8 | 9.7 | 0.00 | 0.00 | 0.00 | 59 | 1015.7 |
| 20260509180542 | 16 | 42 | 3.2 | 12.9 | 0.00 | 0.00 | 0.00 | 58 | 1015.6 |
| 20260509180025 | 16 | 355 | 4.8 | 8.0 | 0.00 | 0.00 | 0.00 | 58 | 1015.6 |
| 20260509175540 | 16 | 47 | 3.2 | 11.3 | 0.00 | 0.00 | 0.00 | 58 | 1015.7 |
| 20260509175029 | 16 | 339 | 4.8 | 12.9 | 0.00 | 0.00 | 0.00 | 57 | 1015.7 |
| 20260509174531 | 16 | 355 | 6.4 | 12.9 | 0.00 | 0.00 | 0.00 | 56 | 1015.8 |
| 20260509174030 | 16 | 29 | 4.8 | 11.3 | 0.00 | 0.00 | 0.00 | 55 | 1015.8 |
| 20260509173554 | 16 | 355 | 3.2 | 8.0 | 0.00 | 0.00 | 0.00 | 54 | 1015.9 |
| 20260509173038 | 17 | 19 | 4.8 | 9.7 | 0.00 | 0.00 | 0.00 | 53 | 1015.9 |
| 20260509172609 | 17 | 26 | 3.2 | 9.7 | 0.00 | 0.00 | 0.00 | 54 | 1016.0 |
| 20260509172037 | 17 | 332 | 4.8 | 9.7 | 0.00 | 0.00 | 0.00 | 54 | 1016.0 |
| 20260509171602 | 17 | 342 | 3.2 | 8.0 | 0.00 | 0.00 | 0.00 | 54 | 1016.0 |
| 20260509171044 | 17 | 325 | 4.8 | 9.7 | 0.00 | 0.00 | 0.00 | 54 | 1015.9 |
| 20260509170607 | 17 | 22 | 1.6 | 9.7 | 0.00 | 0.00 | 0.00 | 54 | 1015.9 |
| 20260509170038 | 17 | 15 | 3.2 | 12.9 | 0.00 | 0.00 | 0.00 | 53 | 1016.0 |
| 20260509165555 | 17 | 32 | 3.2 | 12.9 | 0.00 | 0.00 | 0.00 | 53 | 1016.0 |
| 20260509165036 | 17 | 350 | 4.8 | 12.9 | 0.00 | 0.00 | 0.00 | 51 | 1015.9 |
| 20260509164533 | 17 | 16 | 4.8 | 9.7 | 0.00 | 0.00 | 0.00 | 52 | 1015.9 |
| 20260509164056 | 17 | 290 | 3.2 | 9.7 | 0.00 | 0.00 | 0.00 | 52 | 1016.0 |
| 20260509163556 | 17 | 26 | 3.2 | 9.7 | 0.00 | 0.00 | 0.00 | 52 | 1016.0 |
| 20260509163049 | 18 | 331 | 4.8 | 11.3 | 0.00 | 0.00 | 0.00 | 51 | 1015.9 |
| 20260509162614 | 18 | 348 | 4.8 | 11.3 | 0.00 | 0.00 | 0.00 | 51 | 1015.9 |
| 20260509162050 | 18 | 5 | 1.6 | 11.3 | 0.00 | 0.00 | 0.00 | 50 | 1015.9 |
| 20260509161535 | 18 | 360 | 3.2 | 14.5 | 0.00 | 0.00 | 0.00 | 51 | 1015.9 |
| 20260509161052 | 18 | 22 | 6.4 | 14.5 | 0.00 | 0.00 | 0.00 | 53 | 1015.9 |
| 20260509160542 | 18 | 57 | 3.2 | 14.5 | 0.00 | 0.00 | 0.00 | 51 | 1016.0 |
| 20260509160052 | 17 | 34 | 4.8 | 14.5 | 0.00 | 0.00 | 0.00 | 52 | 1015.9 |
| 20260509155539 | 17 | 350 | 6.4 | 12.9 | 0.00 | 0.00 | 0.00 | 50 | 1015.9 |
| 20260509155026 | 18 | 34 | 4.8 | 9.7 | 0.00 | 0.00 | 0.00 | 52 | 1015.9 |
| 20260509154550 | 18 | 18 | 3.2 | 9.7 | 0.00 | 0.00 | 0.00 | 49 | 1015.8 |
| 20260509154037 | 18 | 351 | 4.8 | 9.7 | 0.00 | 0.00 | 0.00 | 50 | 1015.8 |
| 20260509153547 | 18 | 88 | 3.2 | 12.9 | 0.00 | 0.00 | 0.00 | 51 | 1015.9 |
| 20260509153028 | 18 | 351 | 3.2 | 14.5 | 0.00 | 0.00 | 0.00 | 49 | 1015.9 |
| 20260509152542 | 18 | 11 | 1.6 | 14.5 | 0.00 | 0.00 | 0.00 | 52 | 1015.9 |
| 20260509152028 | 18 | 304 | 3.2 | 6.4 | 0.00 | 0.00 | 0.00 | 51 | 1016.0 |
| 20260509151537 | 18 | 290 | 3.2 | 9.7 | 0.00 | 0.00 | 0.00 | 50 | 1016.1 |
| 20260509151038 | 18 | 331 | 3.2 | 9.7 | 0.00 | 0.00 | 0.00 | 48 | 1016.1 |
| 20260509150548 | 19 | 342 | 3.2 | 12.9 | 0.00 | 0.00 | 0.00 | 46 | 1016.1 |
| 20260509150043 | 19 | 23 | 6.4 | 12.9 | 0.00 | 0.00 | 0.00 | 47 | 1016.1 |
| 20260509145557 | 19 | 62 | 4.8 | 12.9 | 0.00 | 0.00 | 0.00 | 48 | 1016.2 |
| 20260509145046 | 19 | 360 | 4.8 | 14.5 | 0.00 | 0.00 | 0.00 | 47 | 1016.1 |
| 20260509144552 | 19 | 323 | 3.2 | 14.5 | 0.00 | 0.00 | 0.00 | 47 | 1016.1 |
| 20260509144039 | 19 | 346 | 4.8 | 14.5 | 0.00 | 0.00 | 0.00 | 47 | 1016.0 |
| 20260509143543 | 19 | 51 | 3.2 | 16.1 | 0.00 | 0.00 | 0.00 | 47 | 1016.1 |
| 20260509143051 | 19 | 309 | 8.0 | 16.1 | 0.00 | 0.00 | 0.00 | 46 | 1016.2 |
| 20260509142557 | 19 | 343 | 4.8 | 12.9 | 0.00 | 0.00 | 0.00 | 45 | 1016.2 |
| 20260509142036 | 19 | 337 | 4.8 | 16.1 | 0.00 | 0.00 | 0.00 | 46 | 1016.2 |
| 20260509141535 | 20 | 18 | 6.4 | 16.1 | 0.00 | 0.00 | 0.00 | 45 | 1016.3 |
| 20260509141036 | 20 | 41 | 4.8 | 19.3 | 0.00 | 0.00 | 0.00 | 47 | 1016.4 |